Location: Newark
(41.6500°N, 71.4833°W)
Time: 00:45:06
(UTC+00:00)

Courier 1B - Pass Details

Date: 27 January 2020
Orbit: 962 x 1209 km, 28.3° (Epoch: 25 February)

Event Time Altitude Azimuth Distance (km) Brightness Sun altitude
Rises 06:55:29 0° 229° (SW) 3,785 - -56.1°
Reaches altitude 10° 06:58:43 10° 215° (SW) 2,875 - -55.6°
Maximum altitude 07:04:03 23° 166° (SSE) 2,130 - -54.7°
Drops below altitude 10° 07:09:38 10° 117° (ESE) 3,020 - -53.8°
Exits shadow 07:11:22 - 109° (ESE) 3,498 10.7 -53.5°
Sets 07:13:07 0° 104° (ESE) 4,021 11.1 -53.3°
